Weather History for KBMQ - May, 2014

Change the Weather History Date:

Saturday, May 17, 2014

  Actual Average Record
Temperature  
Mean Temperature 72 °F -  
Max Temperature 86 °F 82 °F 93 °F (2013)
Min Temperature 59 °F 62 °F 53 °F (2006)
Cooling Degree Days 6    
Growing Degree Days 22 (Base 50)    
Moisture  
Dew Point 51 °F    
Average Humidity 48    
Maximum Humidity 67    
Minimum Humidity 33    
Precipitation  
Precipitation 0.00 in - - ()
Sea Level Pressure  
Sea Level Pressure 29.95 in    
Wind  
Wind Speed 12 mph (South)    
Max Wind Speed 16 mph    
Max Gust Speed 24 mph    
Visibility 10 miles    
Events      
Averages and records for this station are not official NWS values.
T = Trace of Precipitation, MM = Missing Value Source: NWS Daily Summary

Daily Weather History Graph

Daily Weather History Graph

Search for Another Location

Airport or City:

Trip Planner

Search our weather history database for the weather conditions in past years. The results will help you decide how hot, cold, wet, or windy it might be!

Date:

Astronomy

May. 17, 2014 Rise Set
Actual Time 6:36 AM CDT 8:22 PM CDT
Civil Twilight 6:10 AM CDT 8:48 PM CDT
Nautical Twilight 5:38 AM CDT 9:20 PM CDT
Astronomical Twilight 5:04 AM CDT 9:54 PM CDT
Moon 11:25 PM CDT (5/17) 9:20 AM CDT (5/17)
Length of Visible Light 14h 38m
Length of Day
13h 45m
Waning Gibbous, 89% of the Moon is Illuminated
May 17
Waning Gibbous
May 21
Last Quarter
May 28
New
Jun 5
First Quarter
Jun 12
Full

Hourly Weather History & Observations

Time (CDT) Temp. Heat Index Dew Point Humidity Pressure Visibility Wind Dir Wind Speed Gust Speed Precip Events Conditions
12:53 AM 68.0 °F - 39.0 °F 35% 29.95 in 10.0 mi South 12.7 mph 19.6 mph N/A   Clear
1:53 AM 66.0 °F - 46.0 °F 48% 29.95 in 10.0 mi South 12.7 mph 19.6 mph N/A   Clear
2:53 AM 64.9 °F - 51.1 °F 61% 29.94 in 10.0 mi South 13.8 mph 21.9 mph N/A   Clear
3:53 AM 63.0 °F - 51.1 °F 65% 29.93 in 10.0 mi South 13.8 mph - N/A   Clear
4:53 AM 62.1 °F - 48.9 °F 62% 29.94 in 10.0 mi South 9.2 mph - N/A   Clear
5:53 AM 61.0 °F - 43.0 °F 52% 29.94 in 10.0 mi South 10.4 mph 18.4 mph N/A   Clear
6:53 AM 59.0 °F - 46.9 °F 64% 29.96 in 10.0 mi South 9.2 mph - N/A   Clear
7:53 AM 61.0 °F - 50.0 °F 67% 29.97 in 10.0 mi South 9.2 mph - N/A   Clear
8:53 AM 64.9 °F - 52.0 °F 63% 29.98 in 10.0 mi South 13.8 mph 23.0 mph N/A   Clear
9:53 AM 70.0 °F - 52.0 °F 53% 29.98 in 10.0 mi South 15.0 mph 24.2 mph N/A   Clear
10:53 AM 73.0 °F - 53.1 °F 49% 29.99 in 10.0 mi South 15.0 mph 23.0 mph N/A   Clear
11:53 AM 75.9 °F - 55.0 °F 48% 29.98 in 10.0 mi South 16.1 mph 20.7 mph N/A   Clear
12:53 PM 79.0 °F - 55.9 °F 45% 29.97 in 10.0 mi South 16.1 mph 23.0 mph N/A   Clear
1:53 PM 82.0 °F 81.4 °F 55.0 °F 39% 29.96 in 10.0 mi South 15.0 mph 21.9 mph N/A   Clear
2:53 PM 84.0 °F 82.9 °F 55.0 °F 37% 29.95 in 10.0 mi South 10.4 mph 20.7 mph N/A   Clear
3:53 PM 84.0 °F 82.5 °F 53.1 °F 34% 29.92 in 10.0 mi South 13.8 mph 21.9 mph N/A   Clear
4:53 PM 84.9 °F 83.3 °F 54.0 °F 34% 29.90 in 10.0 mi South 11.5 mph 21.9 mph N/A   Clear
5:53 PM 84.0 °F - 52.0 °F 33% 29.90 in 10.0 mi SSE 10.4 mph 24.2 mph N/A   Clear
6:53 PM 82.9 °F - 52.0 °F 34% 29.90 in 10.0 mi SSE 9.2 mph 21.9 mph N/A   Clear
7:53 PM 80.1 °F - 51.1 °F 36% 29.91 in 10.0 mi SSE 9.2 mph 19.6 mph N/A   Clear
9:53 PM 73.0 °F - 46.9 °F 39% 29.96 in 10.0 mi SSE 10.4 mph - N/A   Clear
10:53 PM 71.1 °F - 48.9 °F 45% 29.99 in 10.0 mi SSE 4.6 mph - N/A   Clear
11:53 PM 69.1 °F - 51.1 °F 53% 29.99 in 10.0 mi South 10.4 mph - N/A   Clear